FW5801 Weather Reports


Display with metric or nautical units.
time (UTC)temp
F
wind
direction
speed
MPH
gust
MPH
rain 1hr
in
rain 24hr
in
rain mn
in
humidity
%
barometer
mb
20260503002057 44 311 3.0 8.0 0.00 0.00 0.00 61 1017.7
20260503001557 44 307 3.0 8.0 0.00 0.00 0.00 61 1017.7
20260503001057 45 292 3.0 8.0 0.00 0.00 0.00 62 1017.5
20260503000559 45 309 3.0 8.0 0.00 0.00 0.00 61 1017.5
20260503000100 45 9 4.0 8.0 0.00 0.00 0.00 61 1017.5
20260502235559 45 303 4.0 12.0 0.00 0.00 0.00 60 1017.4
20260502235059 45 333 4.0 12.0 0.00 0.00 0.00 60 1017.4
20260502234600 45 348 4.0 10.0 0.00 0.00 0.00 59 1017.3
20260502234058 45 329 3.0 11.0 0.00 0.00 0.00 60 1017.4
20260502233557 45 338 6.0 12.0 0.00 0.00 0.00 59 1017.3
20260502233059 45 333 6.0 12.0 0.00 0.00 0.00 59 1017.3
20260502232557 45 11 5.0 10.0 0.00 0.00 0.00 58 1017.3
20260502232057 46 9 4.0 10.0 0.00 0.00 0.00 59 1017.2
20260502231559 46 323 4.0 10.0 0.00 0.00 0.00 59 1017.3
20260502231057 46 352 4.0 11.0 0.00 0.00 0.00 58 1017.3
20260502230557 46 352 5.0 12.0 0.00 0.00 0.00 58 1017.2
20260502230058 46 352 7.0 12.0 0.00 0.00 0.00 58 1017.2
20260502225556 46 352 6.0 12.0 0.00 0.00 0.00 58 1017.2
20260502225058 46 12 7.0 11.0 0.00 0.00 0.00 58 1017.3
20260502224612 46 333 4.0 13.0 0.00 0.00 0.00 57 1017.2
20260502224100 46 10 5.0 14.0 0.00 0.00 0.00 57 1017.3
20260502223557 46 318 8.0 14.0 0.00 0.00 0.00 57 1017.2
20260502223057 46 352 7.0 14.0 0.00 0.00 0.00 57 1017.3
20260502222557 46 329 6.0 14.0 0.00 0.00 0.00 58 1017.1
20260502222100 46 342 8.0 14.0 0.00 0.00 0.00 57 1017.2
20260502221559 47 355 6.0 13.0 0.00 0.00 0.00 57 1017.2
20260502221059 47 350 7.0 16.0 0.00 0.00 0.00 57 1017.1
20260502220557 47 348 9.0 16.0 0.00 0.00 0.00 56 1017.1
20260502220106 47 328 6.0 13.0 0.00 0.00 0.00 57 1017.1
20260502215557 47 11 5.0 13.0 0.00 0.00 0.00 57 1017.0
20260502215100 47 348 8.0 13.0 0.00 0.00 0.00 56 1017.0
20260502214558 48 339 7.0 13.0 0.00 0.00 0.00 56 1017.0
20260502214121 48 15 6.0 13.0 0.00 0.00 0.00 56 1016.9
20260502213603 49 327 6.0 13.0 0.00 0.00 0.00 54 1017.0
20260502213124 49 360 6.0 12.0 0.00 0.00 0.00 54 1017.0
20260502212600 50 350 7.0 15.0 0.00 0.00 0.00 52 1017.0
20260502212100 50 314 8.0 15.0 0.00 0.00 0.00 56 1016.9
20260502211637 49 360 8.0 16.0 0.00 0.00 0.00 56 1016.9
20260502211102 48 360 8.0 16.0 0.00 0.00 0.00 54 1016.8
20260502210600 48 9 8.0 15.0 0.00 0.00 0.00 55 1016.8
20260502205600 48 330 6.0 13.0 0.00 0.00 0.00 56 1016.8
20260502205100 48 340 7.0 11.0 0.00 0.00 0.00 56 1016.7
20260502204600 48 345 6.0 13.0 0.00 0.00 0.00 55 1016.8
20260502204100 48 345 8.0 15.0 0.00 0.00 0.00 56 1016.9
20260502203601 48 328 8.0 15.0 0.00 0.00 0.00 55 1017.0
20260502203105 48 350 9.0 15.0 0.00 0.00 0.00 55 1016.9
20260502202556 49 9 6.0 14.0 0.00 0.00 0.00 55 1017.0
20260502202057 49 326 8.0 14.0 0.00 0.00 0.00 57 1017.0
20260502201602 49 350 4.0 11.0 0.00 0.00 0.00 52 1017.0
20260502201057 49 29 6.0 13.0 0.00 0.00 0.00 54 1016.9
20260502200559 49 333 8.0 15.0 0.00 0.00 0.00 54 1017.0
20260502200059 49 313 6.0 15.0 0.00 0.00 0.00 55 1017.0
20260502195557 49 355 9.0 15.0 0.00 0.00 0.00 54 1017.1
20260502195057 49 9 8.0 16.0 0.00 0.00 0.00 55 1017.2
20260502194607 49 343 8.0 16.0 0.00 0.00 0.00 54 1017.1
20260502194057 50 345 10.0 16.0 0.00 0.00 0.00 52 1017.4
20260502193559 51 321 7.0 13.0 0.00 0.00 0.00 53 1017.2
20260502193058 51 11 7.0 13.0 0.00 0.00 0.00 53 1017.1
20260502192556 51 228 6.0 13.0 0.00 0.00 0.00 53 1017.1
20260502192103 50 346 8.0 13.0 0.00 0.00 0.00 56 1017.3
20260502191603 49 293 5.0 14.0 0.00 0.00 0.00 56 1017.2
20260502191058 49 334 9.0 16.0 0.00 0.00 0.00 56 1017.4
20260502190556 49 9 4.0 16.0 0.00 0.00 0.00 54 1017.4
20260502190059 50 360 6.0 11.0 0.00 0.00 0.00 55 1017.3
20260502185557 50 263 6.0 14.0 0.00 0.00 0.00 57 1017.4
20260502185057 50 324 5.0 17.0 0.00 0.00 0.00 51 1017.5
20260502184600 50 304 10.0 17.0 0.00 0.00 0.00 53 1017.4
20260502184057 50 323 5.0 14.0 0.00 0.00 0.00 57 1017.4
20260502183648 49 274 7.0 14.0 0.00 0.00 0.00 59 1017.5
20260502183108 48 307 6.0 13.0 0.00 0.00 0.00 57 1017.5
20260502182559 49 9 5.0 13.0 0.00 0.00 0.00 56 1017.5
20260502182056 49 350 7.0 13.0 0.00 0.00 0.00 56 1017.5
20260502181558 48 338 6.0 16.0 0.00 0.00 0.00 57 1017.6
20260502181059 48 9 8.0 16.0 0.00 0.00 0.00 56 1017.6
20260502180557 48 9 10.0 15.0 0.00 0.00 0.00 55 1017.6
20260502164057 47 336 8.0 15.0 0.00 0.00 0.00 58 1017.8
20260502163556 48 347 5.0 16.0 0.00 0.00 0.00 58 1017.8
20260502163058 48 313 6.0 16.0 0.00 0.00 0.00 60 1017.9
20260502162557 47 14 8.0 13.0 0.00 0.00 0.00 59 1017.9
20260502162056 46 348 7.0 13.0 0.00 0.00 0.00 60 1017.9
20260502161603 46 33 6.0 15.0 0.00 0.00 0.00 60 1018.1
20260502161057 47 351 7.0 15.0 0.00 0.00 0.00 59 1018.1
20260502160557 47 15 9.0 14.0 0.00 0.00 0.00 61 1018.0
20260502152102 46 343 6.0 14.0 0.00 0.01 0.00 61 1018.2
20260502151607 46 355 6.0 14.0 0.00 0.01 0.00 63 1018.0
20260502151101 46 9 5.0 14.0 0.00 0.01 0.00 65 1017.9
20260502150558 46 15 6.0 16.0 0.00 0.01 0.00 61 1018.1
20260502130557 42 31 6.0 12.0 0.00 0.05 0.00 72 1017.6
20260502123600 39 336 5.0 11.0 0.00 0.05 0.00 73 1017.4
20260502123100 39 328 6.0 11.0 0.00 0.05 0.00 73 1017.5
20260502122600 39 352 5.0 9.0 0.00 0.05 0.00 74 1017.5
20260502122100 38 321 4.0 8.0 0.00 0.05 0.00 74 1017.5
20260502121558 38 333 4.0 9.0 0.00 0.05 0.00 75 1017.4
20260502121057 38 331 4.0 9.0 0.00 0.05 0.00 76 1017.4
20260502120557 37 324 4.0 8.0 0.00 0.05 0.00 76 1017.4
20260502115558 36 333 3.0 8.0 0.00 0.05 0.00 78 1017.2
20260502115057 36 333 2.0 6.0 0.00 0.05 0.00 79 1017.3
20260502114609 35 326 3.0 6.0 0.00 0.05 0.00 80 1017.2
20260502114057 35 325 3.0 6.0 0.00 0.05 0.00 81 1017.2
20260502113557 34 334 3.0 6.0 0.00 0.05 0.00 82 1017.2
20260502113058 33 325 2.0 5.0 0.00 0.05 0.00 83 1017.2
20260502112556 33 323 1.0 4.0 0.00 0.05 0.00 83 1017.3
20260502112056 33 0 0.0 3.0 0.00 0.05 0.00 83 1017.2
20260502111558 33 318 0.0 3.0 0.00 0.05 0.00 82 1017.1
20260502111057 32 320 1.0 3.0 0.00 0.05 0.00 82 1017.1
20260502110557 32 323 1.0 3.0 0.00 0.05 0.00 82 1017.1
20260502110059 32 321 0.0 2.0 0.00 0.05 0.00 81 1017.0
20260502105557 33 0 0.0 0.0 0.00 0.05 0.00 81 1017.1
20260502105058 33 0 0.0 2.0 0.00 0.05 0.00 81 1017.2
20260502104559 33 0 0.0 3.0 0.00 0.05 0.00 80 1017.0
20260502104101 33 321 0.0 4.0 0.00 0.05 0.00 80 1017.1
20260502103557 33 321 1.0 4.0 0.00 0.05 0.00 80 1017.1
20260502103056 33 315 1.0 5.0 0.00 0.05 0.00 80 1017.1
20260502102557 33 313 2.0 5.0 0.00 0.05 0.00 79 1017.1
20260502102057 33 311 1.0 4.0 0.00 0.05 0.00 79 1017.1
20260502101623 33 329 1.0 4.0 0.00 0.05 0.00 79 1017.1
20260502101057 34 0 0.0 3.0 0.00 0.05 0.00 78 1017.0
20260502100556 34 0 0.0 4.0 0.00 0.05 0.00 78 1017.1
20260502100105 34 0 1.0 4.0 0.00 0.05 0.00 79 1016.8
20260502091056 34 332 3.0 5.0 0.00 0.05 0.00 80 1016.8
20260502090559 34 317 1.0 4.0 0.00 0.05 0.00 80 1016.9
20260502090114 34 0 0.0 3.0 0.00 0.05 0.00 80 1016.8
20260502080108 35 0 0.0 3.0 0.00 0.05 0.00 80 1016.7
20260502071057 36 0 0.0 2.0 0.00 0.05 0.00 79 1016.6
20260502070557 36 0 0.0 2.0 0.00 0.05 0.00 79 1016.7
20260502070125 36 323 0.0 4.0 0.00 0.05 0.00 79 1016.7
20260502065557 36 323 1.0 5.0 0.00 0.05 0.00 79 1016.6
20260502065057 36 0 1.0 5.0 0.00 0.05 0.00 79 1016.8
20260502064600 36 323 1.0 4.0 0.00 0.05 0.00 80 1016.9
20260502064057 36 306 1.0 5.0 0.00 0.05 0.00 80 1016.9
20260502063601 36 327 2.0 5.0 0.00 0.05 0.00 80 1017.0
20260502063109 36 316 2.0 4.0 0.00 0.05 0.00 80 1017.0
20260502062603 36 319 1.0 3.0 0.00 0.05 0.00 80 1017.1
20260502062056 36 296 0.0 3.0 0.00 0.05 0.00 80 1017.0
20260502061609 36 0 0.0 3.0 0.00 0.05 0.00 80 1017.1
20260502061100 36 296 0.0 2.0 0.00 0.05 0.00 80 1017.1
20260502060601 36 0 0.0 2.0 0.00 0.05 0.00 79 1017.1
20260502060104 37 0 0.0 3.0 0.00 0.05 0.00 80 1017.1
20260502055559 37 0 0.0 3.0 0.00 0.05 0.00 80 1017.1
20260502055102 37 0 1.0 3.0 0.00 0.05 0.00 80 1017.1
20260502054559 37 300 0.0 3.0 0.00 0.05 0.00 80 1017.0
20260502054059 37 0 0.0 3.0 0.00 0.05 0.00 81 1017.1
20260502053559 37 290 0.0 3.0 0.00 0.05 0.00 81 1017.2
20260502053100 37 0 1.0 3.0 0.00 0.05 0.00 81 1017.3
20260502052559 37 286 0.0 3.0 0.00 0.05 0.00 81 1017.3
20260502052101 37 0 0.0 4.0 0.00 0.05 0.00 81 1017.3
20260502051627 37 0 1.0 4.0 0.00 0.05 0.00 82 1017.3
20260502051058 37 285 0.0 3.0 0.00 0.05 0.00 82 1017.3
20260502050558 38 285 1.0 3.0 0.00 0.05 0.00 82 1017.1
20260502050058 38 285 1.0 4.0 0.00 0.05 0.00 82 1017.2
20260502045600 38 0 0.0 4.0 0.00 0.05 0.00 83 1017.3
20260502045059 38 281 1.0 4.0 0.00 0.05 0.00 83 1017.3
20260502044558 38 0 1.0 3.0 0.00 0.05 0.00 83 1017.3
20260502044059 38 286 0.0 3.0 0.00 0.05 0.00 83 1017.2
20260502043559 38 287 0.0 3.0 0.00 0.05 0.00 83 1017.2
20260502043105 38 0 0.0 3.0 0.00 0.05 0.00 83 1017.2
20260502042558 38 0 0.0 1.0 0.00 0.05 0.00 82 1017.3
20260502042059 38 0 0.0 3.0 0.00 0.05 0.00 82 1017.2
20260502041558 38 0 0.0 3.0 0.00 0.05 0.00 81 1017.3
20260502041100 39 0 0.0 3.0 0.00 0.05 0.00 81 1017.3
20260502040559 39 0 0.0 3.0 0.00 0.05 0.00 81 1017.1
20260502035559 39 0 0.0 3.0 0.00 0.05 0.05 81 1017.3
20260502035100 39 291 0.0 4.0 0.00 0.05 0.05 80 1017.2
20260502034559 39 292 0.0 4.0 0.00 0.05 0.05 80 1017.1
20260502034059 39 0 1.0 4.0 0.00 0.05 0.05 80 1017.2
20260502033558 40 288 0.0 3.0 0.00 0.05 0.05 79 1017.3
20260502033101 40 287 0.0 4.0 0.00 0.05 0.05 79 1017.1
20260502032559 40 285 0.0 5.0 0.00 0.05 0.05 79 1017.0
20260502032059 40 0 1.0 5.0 0.00 0.05 0.05 79 1017.1
20260502031601 40 279 0.0 3.0 0.00 0.05 0.05 78 1017.2
20260502031059 40 0 0.0 3.0 0.00 0.05 0.05 78 1017.1
20260502030558 40 0 0.0 4.0 0.00 0.05 0.05 78 1017.2
20260502030104 40 272 1.0 4.0 0.00 0.05 0.05 78 1017.3
20260502025559 40 273 1.0 3.0 0.00 0.05 0.05 77 1017.3
20260502025059 41 287 0.0 3.0 0.00 0.05 0.05 77 1017.3
20260502024559 41 289 0.0 4.0 0.00 0.05 0.05 77 1017.2
20260502024104 41 289 1.0 4.0 0.00 0.05 0.05 77 1017.2
20260502023601 41 289 0.0 3.0 0.00 0.05 0.05 77 1017.1
20260502023124 41 0 0.0 3.0 0.00 0.05 0.05 77 1017.2
20260502022559 42 0 1.0 3.0 0.00 0.05 0.05 76 1017.0
20260502022059 42 311 0.0 3.0 0.00 0.05 0.05 76 1017.0
20260502021559 42 312 0.0 3.0 0.00 0.05 0.05 76 1016.9
20260502021101 42 0 0.0 3.0 0.00 0.05 0.05 75 1016.8
20260502020600 43 314 1.0 3.0 0.00 0.05 0.05 75 1016.7
20260502020107 43 317 1.0 4.0 0.00 0.05 0.05 75 1016.8
20260502015557 43 316 1.0 6.0 0.00 0.05 0.05 74 1016.6
20260502015057 43 0 2.0 6.0 0.00 0.05 0.05 74 1016.6
20260502014557 43 319 3.0 6.0 0.00 0.05 0.05 74 1016.5
20260502014057 44 328 2.0 4.0 0.00 0.05 0.05 74 1016.3
20260502013557 44 325 2.0 4.0 0.00 0.05 0.05 74 1016.4
20260502013113 44 333 1.0 4.0 0.00 0.05 0.05 73 1016.5
20260502012557 44 338 2.0 6.0 0.00 0.05 0.05 72 1016.2
20260502012057 45 331 3.0 7.0 0.00 0.05 0.05 71 1016.2
20260502011608 45 319 3.0 7.0 0.00 0.05 0.05 71 1016.1
20260502011059 45 161 4.0 8.0 0.00 0.05 0.05 71 1016.1
20260502010556 45 157 3.0 10.0 0.00 0.05 0.05 71 1015.8
20260502010100 46 172 5.0 10.0 0.00 0.05 0.05 70 1015.8
20260502005601 46 163 4.0 8.0 0.00 0.05 0.05 70 1015.7
20260502005100 46 159 4.0 7.0 0.00 0.05 0.05 71 1015.6
20260502004624 46 165 3.0 7.0 0.00 0.05 0.05 70 1015.5
20260502004057 46 165 4.0 7.0 0.00 0.05 0.05 70 1015.6
20260502003557 46 169 3.0 8.0 0.00 0.05 0.05 70 1015.4
20260502003101 46 167 3.0 8.0 0.00 0.05 0.05 69 1015.5
20260502002558 46 171 4.0 7.0 0.00 0.05 0.05 69 1015.5